, AK

(GMT )
McGrath

Weather History for PAMC - December, 2013

Change the Weather History Date:

Sunday, December 15, 2013

  Actual Average Record
Temperature  
Mean Temperature -13 °F -3 °F  
Max Temperature 0 °F - 44 °F (1944)
Min Temperature -26 °F -12 °F -61 °F (1946)
Degree Days  
Heating Degree Days 78 68  
Month to date heating degree days 859 998  
Since 1 July heating degree days 4308 5130  
Cooling Degree Days 0    
Month to date cooling degree days 0  
Year to date cooling degree days 78 16  
Moisture  
Dew Point -18 °F    
Average Humidity 67    
Maximum Humidity 75    
Minimum Humidity 54    
Precipitation  
Precipitation T in 0.04 in 0.42 in (1984)
Month to date precipitation 0.11 0.60  
Year to date precipitation 19.55 17.31  
Snow  
Snow 0.10 in 0.70 in 7.40 in (1984)
Month to date snowfall 0.4 9.7  
Since 1 July snowfall 13.3 40.7  
Snow Depth 3.00 in    
Sea Level Pressure  
Sea Level Pressure 29.95 in    
Wind  
Wind Speed 4 mph (NW)    
Max Wind Speed 12 mph    
Max Gust Speed 16 mph    
Visibility 9 miles    
Events Snow    
T = Trace of Precipitation, MM = Missing Value Source: NWS Daily Summary

Daily Weather History Graph

Daily Weather History Graph

Search for Another Location

Airport or City:

Trip Planner

Search our weather history database for the weather conditions in past years. The results will help you decide how hot, cold, wet, or windy it might be!

Date:

Astronomy

Dec. 15, 2013 Rise Set
Actual Time 10:53 AM AKST 3:41 PM AKST
Civil Twilight 9:43 AM AKST 4:52 PM AKST
Nautical Twilight 8:38 AM AKST 5:56 PM AKST
Astronomical Twilight 7:41 AM AKST 6:54 PM AKST
Moon 3:24 PM AKST (12/15) 8:47 AM AKST (12/15)
Length of Visible Light 7h 08m
Length of Day
4h 48m
Waxing Gibbous, 98% of the Moon is Illuminated
Dec 15
Waxing Gibbous
Dec 17
Full
Dec 25
Last Quarter
Jan 1
New
Jan 7
First Quarter

Hourly Weather History & Observations

Time (AKST) Temp. Windchill Dew Point Humidity Pressure Visibility Wind Dir Wind Speed Gust Speed Precip Events Conditions
12:53 AM -0.0 °F -16.3 °F -8.0 °F 69% 29.60 in 5.0 mi North 10.4 mph - 0.00 in Snow Light Snow
1:53 AM -0.0 °F -13.0 °F -8.0 °F 69% 29.64 in 7.0 mi North 6.9 mph - 0.00 in   Overcast
2:53 AM -0.0 °F -15.3 °F -9.0 °F 66% 29.68 in 6.0 mi North 9.2 mph - 0.00 in Snow Light Snow
3:53 AM -0.0 °F -15.3 °F -9.0 °F 66% 29.70 in 6.0 mi NNW 9.2 mph - 0.00 in Snow Light Snow
4:53 AM -0.0 °F -13.0 °F -11.0 °F 60% 29.74 in 10.0 mi NNW 6.9 mph - 0.00 in   Overcast
5:53 AM -0.9 °F -11.0 °F -11.0 °F 62% 29.78 in 10.0 mi NW 4.6 mph - N/A   Clear
6:53 AM -2.9 °F - -11.0 °F 68% 29.81 in 10.0 mi Calm Calm - N/A   Overcast
7:53 AM -4.0 °F -14.6 °F -11.9 °F 69% 29.84 in 10.0 mi West 4.6 mph - N/A   Clear
8:53 AM -7.1 °F - -15.0 °F 68% 29.86 in 10.0 mi Calm Calm - N/A   Clear
9:53 AM -8.0 °F - -16.1 °F 68% 29.91 in 10.0 mi Calm Calm - N/A   Clear
10:53 AM -11.9 °F - -18.9 °F 71% 29.96 in 10.0 mi Calm Calm - N/A   Partly Cloudy
11:53 AM -8.0 °F -22.5 °F -17.0 °F 65% 29.99 in 10.0 mi WNW 6.9 mph - N/A   Scattered Clouds
12:53 PM -6.0 °F -20.1 °F -17.0 °F 59% 30.02 in 10.0 mi North 6.9 mph - N/A   Scattered Clouds
1:53 PM -14.1 °F -23.9 °F -20.9 °F 71% 30.06 in 10.0 mi WNW 3.5 mph - N/A   Scattered Clouds
2:53 PM -14.1 °F -26.3 °F -20.0 °F 75% 30.09 in 10.0 mi WNW 4.6 mph - N/A   Scattered Clouds
3:53 PM -16.1 °F - -23.1 °F 71% 30.11 in 10.0 mi Calm Calm - N/A   Scattered Clouds
4:53 PM -18.0 °F -30.9 °F -25.1 °F 70% 30.13 in 10.0 mi West 4.6 mph - N/A   Partly Cloudy
5:53 PM -20.0 °F - -26.0 °F 74% 30.16 in 10.0 mi Calm Calm - N/A   Clear
9:53 PM -25.1 °F -39.1 °F -32.1 °F 70% 30.25 in 10.0 mi West 4.6 mph - N/A   Clear
10:53 PM -24.0 °F - -31.0 °F 70% 30.28 in 10.0 mi Calm Calm - N/A   Clear
11:53 PM -24.0 °F - -33.0 °F 63% 30.30 in 10.0 mi Calm Calm - N/A   Clear